[[{"header":{"parameterUnit":"m.s-1","parameterCategory":1,"la1":30.2992,"la2":30.254,"lo1":-89.0895,"lo2":-89.0443,"dy":0.0025,"dx":0.0025,"nx":19,"ny":19,"refTime":"2026-03-31T09:00:00:Z","depth":0,"parameterNumber":2,"parameterNumberName":"U-component_of_WINDS"},"data":[0,0,0,-3.8688,-3.8691,-3.8835,-3.8836,-3.9025,-3.9027,0,0,0,0,0,0,0,0,0,0,0,-3.8646,-3.8648,-3.8688,-3.8691,-3.8835,-3.8836,-3.9025,-3.9027,0,0,0,0,0,0,0,0,0,0,0,-3.8646,-3.8647,-3.8649,-3.8692,-3.8835,-3.8836,-3.9024,-3.8914,0,0,0,0,0,0,0,0,0,0,-3.8773,-3.8736,-3.8647,-3.8649,-3.8693,-3.8835,-3.8836,-3.8909,-3.8921,-3.8961,0,-3.8996,0,-3.9014,-3.904,-3.904,0,0,0,-3.8691,-3.8726,-3.8763,-3.8649,-3.8694,-3.8835,-3.877,-3.8916,-3.8929,-3.8977,-3.8999,-3.9006,-3.9017,-3.9041,-3.9042,-3.9272,-3.9273,0,0,-3.8683,-3.8673,-3.8754,-3.8772,-3.8749,-3.8765,-3.8775,-3.8924,-3.8947,-3.8999,-3.901,-3.9021,-3.9042,-3.9044,-3.9271,-3.9272,0,0,0,-3.866,-3.8668,-3.8702,-3.8765,-3.879,-3.877,-3.878,-3.894,-3.8952,-3.9012,-3.9023,-3.9043,-3.9046,-3.927,-3.9271,-3.9314,0,0,0,-3.8655,-3.8655,-3.8698,-3.8694,-3.8788,-3.8867,-3.8793,-3.8942,-3.8959,-3.9022,-3.9043,-3.9047,-3.9268,-3.927,-3.931,-3.9336,0,0,0,-3.8637,-3.8652,-3.8674,-3.8693,-3.8755,-3.8864,-3.8885,-3.8945,-3.8966,-3.904,-3.9048,-3.9268,-3.927,-3.9307,-3.933,-3.9392,0,0,0,-3.8614,-3.8711,-3.8674,-3.8787,-3.8753,-3.889,-3.8884,-3.8987,-3.9057,-3.9044,-3.9269,-3.9271,-3.9306,-3.9327,-3.9388,-3.944,-3.9461,0,0,-3.8731,-3.8725,-3.8792,-3.8763,-3.8904,-3.8869,-3.9017,-3.9091,-3.9108,-3.9217,-3.9222,-3.9312,-3.933,-3.9391,-3.9589,-3.9605,0,0,0,-3.8826,-3.8874,-3.8913,-3.8978,-3.9036,-3.9088,-3.914,-3.9168,-3.926,-3.9161,-3.9353,-3.9364,-3.94,-3.9425,-3.9439,-3.947,-3.9283,-3.9283,-3.9283,-3.8976,-3.8992,-3.9104,-3.9137,-3.9201,-3.9254,-3.9307,-3.9354,-3.9352,-3.9397,-3.9428,-3.9546,-3.9575,-3.9586,-3.9618,-3.946,-3.946,-3.946,-3.946,-3.9147,-3.9216,-3.9212,-3.9319,-3.9336,-3.9427,-3.9483,-3.9478,-3.9566,-3.9524,-3.9557,-3.9506,-3.9604,-3.9633,-3.9463,-3.9463,-3.9462,-3.9462,-3.9462,-3.9244,-3.928,-3.9312,-3.9408,-3.9481,-3.9513,-3.9597,-3.9611,-3.9624,-3.9657,-3.9691,-3.969,-3.9689,-3.9673,-3.9673,-3.9674,-3.9674,-3.9674,-3.9674,-3.9331,-3.9366,-3.9434,-3.9505,-3.9548,-3.9608,-3.9664,-3.9708,-3.9761,-3.9764,-3.9764,-3.9757,-3.9611,-3.9572,-3.9681,-3.968,-3.9679,-3.9678,-3.9678,-3.9493,-3.9459,-3.9563,-3.9607,-3.9692,-3.9763,-3.9781,-3.987,-3.9909,-3.995,-3.9938,-3.9828,-3.9822,-3.9811,-3.9779,-3.9934,-3.9934,-3.9934,-3.9934,-3.9573,-3.9572,-3.9682,-3.9751,-3.9822,-3.9848,-3.9967,-4.0013,-4.0055,-4.008,-4.0061,-4.0021,-4.0009,-4.001,-3.9995,-3.9965,-4.0164,-4.0164,-4.0164,-3.9672,-3.9679,-3.9776,-3.9816,-3.9884,-3.9942,-4.0054,-4.0135,-4.0177,-4.0174,-4.01,-4.009,-4.0026,-4.0004,-3.9996,-3.9971,-3.9917,0,0]},{"header":{"parameterUnit":"m.s-1","parameterCategory":1,"la1":30.2992,"la2":30.254,"lo1":-89.0895,"lo2":-89.0443,"dy":0.0025,"dx":0.0025,"nx":19,"ny":19,"refTime":"2026-03-31T09:00:00:Z","depth":0,"parameterNumber":3,"parameterNumberName":"V-component_of_WINDS"},"data":[0,0,0,2.5124,2.5127,2.5304,2.5305,2.549,2.5492,0,0,0,0,0,0,0,0,0,0,0,2.5047,2.5047,2.5124,2.5127,2.5304,2.5305,2.549,2.5492,0,0,0,0,0,0,0,0,0,0,0,2.5047,2.5047,2.5048,2.5128,2.5304,2.5305,2.549,2.5371,0,0,0,0,0,0,0,0,0,0,2.5206,2.5111,2.5047,2.5048,2.5129,2.5304,2.5305,2.5366,2.5378,2.5392,0,2.5399,0,2.5448,2.5501,2.5502,0,0,0,2.5145,2.51,2.517,2.5048,2.513,2.5303,2.523,2.5373,2.5387,2.5409,2.5402,2.541,2.5451,2.5502,2.5503,2.5528,2.5527,0,0,2.5136,2.5065,2.516,2.5178,2.5149,2.5224,2.5235,2.5382,2.537,2.5403,2.5415,2.5454,2.5503,2.5504,2.5528,2.5527,0,0,0,2.5095,2.5057,2.5125,2.5169,2.5204,2.5228,2.5241,2.5364,2.5392,2.5418,2.5456,2.5504,2.5506,2.5529,2.5528,2.5425,0,0,0,2.509,2.5034,2.512,2.5078,2.5201,2.5286,2.5218,2.5381,2.54,2.5455,2.5504,2.5507,2.553,2.5529,2.543,2.5389,0,0,0,2.5044,2.5029,2.5046,2.5074,2.5148,2.5286,2.5323,2.5387,2.5423,2.5502,2.5508,2.5531,2.5529,2.5434,2.5396,2.5377,0,0,0,2.4973,2.4951,2.5043,2.5034,2.5146,2.522,2.5323,2.5381,2.5436,2.5505,2.553,2.5528,2.5436,2.54,2.538,2.5349,2.5329,0,0,2.4906,2.494,2.494,2.5028,2.5068,2.5199,2.5224,2.5341,2.5412,2.5485,2.5486,2.5429,2.5396,2.5377,2.5236,2.5219,0,0,0,2.4895,2.4894,2.492,2.497,2.5059,2.5132,2.5253,2.5296,2.5362,2.5435,2.5417,2.54,2.5392,2.538,2.5366,2.5365,2.5519,2.5519,2.552,2.47,2.4793,2.48,2.4914,2.496,2.5085,2.5132,2.5212,2.5291,2.5285,2.5308,2.5211,2.5194,2.5184,2.5181,2.5297,2.5297,2.5296,2.5296,2.4612,2.4626,2.4733,2.4778,2.4876,2.4914,2.5033,2.5087,2.5138,2.5201,2.5198,2.5261,2.5163,2.5165,2.5289,2.529,2.5291,2.5292,2.5292,2.4496,2.452,2.4573,2.4656,2.4709,2.4825,2.4868,2.4955,2.5038,2.5035,2.507,2.5072,2.5086,2.5045,2.5044,2.5044,2.5044,2.5044,2.5043,2.4357,2.442,2.4447,2.4539,2.4584,2.4653,2.4777,2.4823,2.4896,2.4956,2.4957,2.5037,2.5135,2.516,2.5039,2.504,2.504,2.5041,2.5041,2.4237,2.4278,2.4319,2.4363,2.448,2.4527,2.4637,2.4723,2.4773,2.4792,2.4873,2.493,2.4972,2.4984,2.5005,2.4851,2.4851,2.4851,2.4851,2.4142,2.4171,2.4234,2.4298,2.4372,2.4476,2.4519,2.4615,2.4721,2.4758,2.4792,2.4826,2.4834,2.4871,2.4886,2.4907,2.4732,2.4732,2.4732,2.4075,2.4115,2.4136,2.424,2.4338,2.4419,2.4464,2.4534,2.4662,2.4729,2.4789,2.4794,2.485,2.4863,2.4933,2.4953,2.4994,0,0]}]]